Temperature
14 14 14 13 13 13 13 12 12 12 11 11 11 11 11 11 10 10 10 10 10 10 10 10 10 10 10 10 10 10 10 10 10 10 10 10 10 9 10 10 10 10 10
14 14 13 13 13 13 12 12 12 12 11 11 11 11 10 10 10 10 10 10 10 10 10 10 9 10 9 9 9 9 9 9 9 10 9 9 9 9 9 9 10 9 9
14 14 13 13 13 13 12 12 12 11 11 11 11 10 10 10 10 10 10 10 10 10 10 10 9 9 9 9 9 9 9 9 9 9 9 9 9 9 9 9 9 9 9
14 13 13 13 13 12 12 12 12 11 11 11 10 10 10 10 10 10 10 10 10 10 9 9 9 9 9 9 9 8 8 8 8 8 9 9 9 9 9 9 9 9 9
14 13 13 13 12 12 12 12 12 11 11 10 10 10 10 10 10 10 9 9 9 9 9 9 9 9 9 9 8 8 8 8 8 8 8 8 8 8 8 8 8 8 8
14 13 13 12 12 12 12 11 11 11 10 10 10 10 9 10 10 10 9 9 9 9 9 9 9 9 9 9 9 8 8 8 8 8 8 8 8 8 8 8 8 8 8
13 13 12 12 12 12 11 11 11 10 10 10 10 9 9 9 9 9 9 9 9 9 8 8 8 8 8 8 8 8 8 8 8 7 7 8 8 8 7 7 7 7 8
12 12 12 12 12 11 11 11 10 10 10 10 9 9 9 9 9 9 9 8 8 8 8 8 8 8 8 8 7 7 7 7 7 7 7 7 7 7 7 7 7 7 7
12 12 12 12 11 11 11 10 10 10 9 9 9 9 9 9 9 9 8 8 8 8 8 8 8 7 8 8 7 7 7 7 7 7 7 7 7 7 7 7 7 6 7
12 12 11 11 11 11 10 10 10 9 9 9 9 8 8 8 9 8 8 7 7 7 7 7 7 7 7 7 7 6 6 6 6 6 6 6 6 6 6 6 6 6 6
11 11 11 11 10 10 10 9 9 9 9 8 8 8 8 8 8 8 8 7 7 7 7 7 7 7 7 7 7 6 6 6 6 6 6 6 6 6 6 6 6 6 6
11 10 10 10 10 10 9 9 9 8 8 8 8 8 7 7 8 8 8 7 7 6 6 6 7 7 7 6 6 6 6 6 5 5 5 5 5 6 6 5 5 5 5
10 10 10 9 9 9 9 9 8 8 8 8 7 7 7 7 7 7 7 7 7 6 6 6 6 6 6 6 6 6 5 5 5 5 5 5 5 5 5 5 5 5 5
10 9 9 9 9 9 8 8 8 8 7 7 7 7 7 7 7 7 6 6 6 6 6 6 6 5 5 5 5 5 5 5 5 4 4 4 4 5 4 5 5 5 4
9 9 9 8 8 8 8 8 8 7 7 7 7 6 6 6 6 6 6 6 6 5 5 5 5 4 4 4 4 4 4 4 4 4 4 4 4 4 4 4 4 4 4
9 9 8 8 8 7 7 7 7 7 7 7 7 6 6 6 6 6 5 5 5 5 5 4 4 4 4 4 4 4 4 4 4 4 4 3 3 3 3 3 3 3 3
8 8 8 7 7 7 7 7 7 6 6 6 6 6 6 5 5 5 5 5 5 4 4 4 3 3 3 4 3 3 3 4 3 3 3 3 3 3 3 3 3 3 3
8 8 7 7 7 6 6 6 6 6 6 5 5 5 5 5 5 4 4 4 4 4 4 3 3 3 3 3 3 3 3 3 3 3 3 3 3 3 2 2 2 2 2
7 7 7 7 6 6 6 5 5 5 5 5 4 5 5 4 4 4 4 3 3 3 3 3 3 3 3 2 3 3 3 3 3 2 2 2 2 2 2 2 2 2 2
7 7 7 6 6 6 5 5 5 4 4 4 4 4 4 4 3 3 3 3 3 3 3 3 2 2 2 2 2 2 2 2 2 2 2 2 2 2 2 1 2 2 1
7 6 6 6 6 5 5 5 4 4 4 4 4 4 4 3 3 3 3 3 2 2 2 2 2 2 2 2 2 2 2 2 2 2 1 1 1 1 1 1 1 1 1
6 6 6 5 5 5 5 4 4 4 4 3 3 3 3 3 3 3 2 2 2 2 2 2 2 2 2 2 2 2 2 2 2 1 1 1 1 1 1 1 1 1 1
6 5 5 5 5 4 4 4 4 3 3 3 3 3 3 3 2 2 2 2 2 2 2 2 2 2 2 2 2 2 1 1 1 1 1 1 1 1 1 1 1 0 0
5 5 5 4 4 4 4 3 3 3 3 3 2 2 2 2 2 2 2 2 2 2 2 1 1 1 1 1 1 1 1 1 1 1 1 1 1 0 0 0 0 0 -0
5 4 4 4 4 4 3 3 3 3 2 2 2 2 2 2 2 2 2 2 2 1 1 1 1 1 1 1 1 1 1 1 1 1 1 1 0 0 0 0 0 -0 -0
4 4 4 3 3 3 3 3 3 3 2 2 2 2 2 2 2 2 2 1 1 1 1 1 1 1 1 1 1 1 1 1 1 1 1 0 0 0 0 0 -0 -0 -0
Wind_Speed
7 7 6 6 5 5 4 4 4 3 3 3 3 2 2 2 2 2 2 2 3 2 2 2 2 2 2 2 2 2 3 3 4 4 3 3 4 4 3 3 3 3 2
7 7 7 6 6 5 5 5 4 4 4 3 3 3 3 2 2 2 2 2 3 2 2 2 2 2 2 2 2 2 3 3 4 5 4 4 4 4 4 4 4 3 3
7 7 7 7 6 6 5 5 4 4 4 4 4 3 3 3 3 3 3 3 2 2 2 2 2 3 3 2 3 3 2 3 3 4 4 3 4 3 4 4 4 3 3
7 7 7 7 7 6 5 5 5 5 4 4 4 4 4 3 3 3 3 3 3 2 2 2 3 3 3 3 3 3 3 3 3 4 4 3 3 3 3 3 3 2 3
8 8 7 7 6 6 5 5 5 5 5 4 4 4 4 3 3 4 4 3 3 3 3 3 2 2 4 3 3 3 3 3 3 3 3 3 3 3 3 3 3 3 3
8 8 7 7 7 6 6 5 5 5 5 4 5 4 4 3 1 2 3 3 3 3 3 3 2 2 2 3 3 4 4 4 4 4 4 5 5 4 3 4 3 3 3
8 7 7 7 7 7 6 6 5 5 5 5 5 4 4 2 2 3 3 3 3 3 3 3 2 2 3 4 4 5 5 5 5 6 6 5 5 4 4 5 4 5 4
7 7 7 7 7 7 6 6 6 5 5 5 5 5 4 3 3 4 4 5 4 3 3 3 3 3 2 3 3 4 4 4 5 6 6 5 4 4 4 5 5 5 4
6 6 6 7 7 7 6 6 5 5 5 5 4 5 5 3 4 4 5 4 4 4 3 3 3 3 1 3 4 4 4 4 3 5 5 4 3 3 3 3 3 3 3
6 5 5 6 6 6 6 5 5 4 4 4 4 4 4 4 3 4 6 4 4 4 3 3 2 3 1 2 4 4 5 4 4 4 4 4 4 4 5 5 4 4 3
4 5 5 5 5 5 5 4 4 4 4 4 4 4 4 4 3 4 5 5 4 4 3 3 2 1 2 2 4 4 4 5 5 4 4 3 2 2 3 4 4 4 4
4 4 4 5 4 4 5 4 4 4 4 4 4 4 3 3 3 3 4 5 5 5 4 4 2 2 3 3 3 3 4 4 3 3 3 3 2 3 3 3 4 4 4
4 4 4 5 4 4 5 5 4 4 4 4 4 4 3 3 2 3 5 5 5 5 3 2 2 2 4 4 3 3 3 3 3 3 3 3 3 3 3 2 3 3 4
4 4 4 4 4 4 3 4 4 4 4 4 3 3 3 3 3 3 3 4 5 5 4 2 3 4 4 3 3 3 3 2 3 3 3 3 3 2 2 2 2 2 2
4 4 3 3 3 3 3 3 4 4 3 4 4 4 3 4 2 2 3 3 3 3 3 3 2 2 2 2 2 2 2 2 3 3 3 3 3 2 2 2 2 2 2
4 4 3 3 3 3 3 2 1 2 2 3 3 3 3 2 2 2 2 2 2 3 4 3 3 3 3 3 3 3 2 2 3 3 3 3 3 2 2 2 2 2 2
5 4 4 4 4 4 4 4 2 2 3 4 4 4 3 3 2 3 3 3 3 4 4 4 4 4 4 4 3 3 3 3 3 3 3 3 3 2 2 2 2 2 2
5 5 5 4 4 4 4 4 4 3 3 2 3 5 4 4 3 3 4 3 3 4 4 4 4 3 4 4 3 3 3 3 3 3 3 3 3 3 3 2 2 2 2
5 4 4 4 4 5 4 4 4 4 4 3 2 2 4 4 4 4 4 3 3 3 4 3 3 3 4 3 3 3 3 3 3 3 3 3 3 3 3 3 3 2 2
5 6 5 5 5 5 5 5 4 4 4 3 3 3 3 3 2 3 3 3 3 4 4 4 4 4 4 4 3 3 3 3 3 3 3 3 3 3 4 4 3 3 2
5 6 7 6 5 5 5 5 5 5 4 4 4 3 3 4 4 4 3 4 4 4 4 4 4 4 4 3 3 4 4 3 3 3 3 3 3 3 3 3 3 3 3
5 5 6 6 5 5 5 5 5 5 5 5 3 3 4 4 4 4 4 4 4 4 4 4 4 3 4 3 4 4 4 4 4 4 4 3 3 3 3 3 3 3 3
5 6 6 6 5 5 5 5 5 5 5 4 4 3 4 4 4 4 4 4 4 4 4 4 4 4 4 3 4 4 4 4 4 4 4 4 4 3 3 4 4 3 3
5 6 6 6 5 5 5 5 5 5 5 4 4 4 4 4 4 4 4 4 4 4 4 4 4 5 5 4 4 4 4 4 5 5 5 5 4 4 4 4 4 4 4
5 5 6 5 5 5 5 5 5 5 5 4 4 4 4 4 4 3 3 3 4 4 4 4 4 5 5 5 5 4 4 4 5 5 5 5 5 5 5 5 4 4 4
4 5 5 5 5 5 5 5 5 5 5 4 4 4 4 4 4 3 3 3 3 3 4 4 5 5 5 5 5 5 4 5 5 6 6 5 5 5 5 4 5 5 5
Wind_Direction
191 190 189 189 192 197 204 206 205 200 196 195 195 195 195 206 216 205 231 230 248 247 237 252 261 283 270 268 274 275 274 270 265 273 275 274 269 271 280 278 262 252 211
188 190 193 187 192 198 201 202 206 206 201 200 196 202 206 217 228 229 233 241 251 263 260 254 256 250 263 266 271 274 280 275 266 272 269 274 275 277 279 275 267 258 248
185 189 191 191 194 199 200 195 199 198 200 202 202 209 215 223 231 238 239 235 241 255 265 263 267 259 258 259 261 266 274 273 266 263 269 276 274 278 280 272 266 265 251
184 190 195 198 199 198 197 195 197 196 198 203 208 213 219 226 234 241 239 229 237 246 256 263 268 269 270 267 258 261 264 265 265 263 264 266 269 271 270 275 277 272 263
185 192 198 199 198 196 194 197 197 197 201 204 210 216 223 233 241 244 235 229 237 247 254 256 268 303 318 294 280 269 264 263 264 267 266 267 262 259 262 264 269 276 264
189 194 191 194 193 194 197 199 200 202 205 206 214 221 226 229 218 255 250 232 236 245 254 256 248 243 259 259 278 285 278 268 268 263 263 260 262 257 263 262 259 263 263
190 191 188 193 195 198 196 198 201 205 209 215 222 225 229 222 182 206 233 246 243 252 258 256 262 273 260 249 234 233 242 250 266 268 266 266 267 264 261 260 258 259 265
191 189 189 192 194 196 198 202 206 211 212 219 225 229 230 223 193 207 213 232 239 244 252 258 258 264 271 275 258 254 261 255 254 259 268 270 270 263 253 256 263 266 263
191 190 191 193 194 195 200 205 209 211 217 221 225 230 234 226 195 211 223 232 236 242 248 256 260 259 321 287 265 265 270 273 247 260 286 297 305 267 254 248 250 248 257
193 191 189 194 195 196 201 203 204 209 217 221 227 234 237 239 200 214 231 236 238 242 246 245 254 279 320 273 266 271 275 281 284 269 251 243 250 228 218 231 235 243 256
182 184 185 190 193 194 198 198 197 201 209 219 226 234 240 244 213 213 235 242 243 242 246 250 244 217 255 261 275 275 289 293 283 279 270 261 255 251 234 233 238 247 253
172 181 182 182 185 189 189 194 199 200 208 219 225 232 240 237 233 213 224 248 273 250 251 255 250 186 221 252 267 299 306 287 282 279 274 272 268 264 261 249 245 246 259
177 180 180 180 184 188 189 192 201 207 214 220 224 231 236 235 219 197 213 227 249 253 253 287 292 229 227 232 247 271 275 277 278 274 269 272 274 275 271 264 259 259 261
186 184 184 189 187 192 198 202 206 211 215 218 226 234 239 238 240 233 230 227 224 237 244 222 213 217 222 247 249 245 254 270 269 267 272 271 270 261 252 254 258 257 260
191 190 192 196 196 201 207 213 218 222 226 228 233 236 238 246 262 287 257 248 248 250 254 244 240 237 231 232 241 249 257 254 252 259 267 266 261 254 250 252 252 249 255
193 195 198 200 200 199 198 195 170 213 191 220 250 252 247 251 239 237 254 255 253 235 231 233 236 239 245 242 240 244 251 260 263 260 254 252 251 254 251 251 247 244 249
200 201 202 201 200 202 201 200 199 186 183 202 213 224 231 220 220 222 226 225 215 209 228 236 242 247 251 251 248 250 256 262 261 252 251 249 249 246 242 246 240 244 251
205 201 200 200 201 205 207 208 209 208 210 215 201 198 202 203 209 220 218 208 211 215 234 242 246 249 254 256 254 253 255 259 256 248 242 242 244 237 233 240 245 254 258
210 205 202 201 202 204 204 206 210 214 216 218 219 197 185 190 199 207 206 225 226 229 237 245 249 250 254 257 259 259 256 255 254 248 242 239 234 229 231 234 234 234 246
215 200 201 203 201 201 201 204 207 210 214 218 225 225 202 206 227 218 222 237 237 239 240 242 247 252 254 256 255 254 252 249 243 245 246 241 233 228 229 231 234 228 227
212 203 196 203 203 204 204 206 208 211 215 223 232 226 216 225 233 234 234 240 240 242 243 243 246 249 250 252 251 246 247 246 240 241 244 240 232 229 232 233 228 225 223
209 206 203 204 206 208 209 209 209 211 214 221 227 214 206 230 236 236 237 242 245 246 246 246 248 250 248 247 246 244 247 248 242 238 237 234 230 228 229 228 223 221 223
207 204 204 206 207 202 207 212 211 211 213 218 220 218 217 229 238 238 238 241 243 247 246 244 248 249 247 246 244 243 247 249 250 246 241 235 229 224 221 220 220 219 222
206 205 206 207 204 204 209 212 211 211 213 217 218 220 223 228 236 240 241 241 241 243 244 246 248 247 244 244 243 242 248 256 254 248 241 235 229 225 221 220 220 217 218
206 208 209 207 207 209 211 212 213 213 214 218 220 223 227 229 234 239 240 241 243 244 245 246 245 246 246 246 245 245 246 252 254 251 239 232 226 223 221 219 216 215 213
209 211 214 212 212 212 213 215 218 219 219 221 224 226 229 232 236 241 240 240 244 249 251 246 244 245 248 248 247 247 245 238 238 243 240 232 224 223 217 215 214 214 213
Height
1518 1520 1522 1523 1524 1525 1525 1526 1526 1527 1527 1527 1527 1527 1527 1527 1527 1527 1527 1527 1527 1527 1527 1527 1526 1526 1525 1525 1525 1525 1525 1525 1524 1523 1522 1521 1520 1520 1518 1518 1517 1517 1516
1516 1518 1519 1520 1521 1522 1523 1524 1524 1525 1525 1525 1525 1525 1525 1525 1525 1525 1525 1525 1525 1525 1525 1525 1524 1524 1523 1523 1523 1523 1522 1522 1522 1520 1519 1519 1518 1517 1515 1515 1514 1514 1513
1513 1515 1517 1518 1519 1520 1521 1521 1522 1522 1523 1523 1523 1523 1523 1523 1523 1523 1523 1523 1523 1523 1523 1523 1522 1522 1521 1521 1520 1520 1519 1519 1518 1517 1516 1515 1514 1513 1512 1512 1511 1511 1510
1510 1512 1514 1515 1516 1517 1518 1519 1519 1520 1520 1520 1521 1521 1521 1521 1521 1521 1521 1521 1521 1521 1520 1520 1520 1519 1519 1518 1518 1517 1517 1516 1515 1514 1513 1512 1511 1510 1509 1509 1509 1508 1508
1507 1509 1510 1512 1513 1514 1515 1516 1517 1517 1517 1518 1518 1518 1518 1518 1518 1518 1519 1519 1519 1518 1518 1517 1517 1516 1515 1515 1515 1514 1514 1513 1512 1511 1510 1509 1508 1507 1507 1506 1506 1506 1505
1503 1505 1507 1509 1510 1511 1512 1513 1513 1514 1514 1515 1515 1515 1515 1515 1515 1515 1516 1516 1516 1516 1515 1515 1514 1513 1512 1511 1511 1511 1510 1510 1509 1508 1507 1506 1505 1505 1504 1504 1503 1503 1503
1500 1502 1504 1505 1507 1508 1509 1510 1510 1511 1511 1512 1512 1512 1512 1512 1512 1512 1513 1513 1513 1513 1512 1512 1511 1510 1509 1509 1508 1507 1506 1505 1505 1505 1504 1503 1502 1502 1501 1500 1500 1500 1500
1497 1499 1500 1502 1503 1505 1506 1506 1507 1508 1508 1508 1509 1509 1509 1509 1509 1509 1509 1509 1509 1509 1509 1508 1508 1507 1506 1505 1505 1504 1503 1503 1501 1501 1500 1500 1499 1498 1498 1498 1497 1497 1497
1494 1496 1497 1499 1500 1501 1502 1503 1504 1504 1505 1505 1505 1505 1505 1505 1505 1506 1506 1506 1506 1506 1505 1505 1504 1504 1503 1502 1502 1501 1500 1499 1498 1497 1496 1496 1495 1495 1495 1495 1494 1494 1494
1491 1492 1494 1495 1497 1497 1499 1499 1500 1500 1501 1501 1501 1502 1501 1502 1502 1502 1502 1503 1502 1502 1502 1501 1500 1500 1499 1498 1498 1498 1497 1496 1495 1494 1493 1492 1492 1491 1491 1492 1492 1492 1492
1488 1489 1491 1492 1493 1494 1495 1496 1496 1497 1497 1498 1498 1498 1497 1498 1498 1498 1498 1499 1499 1498 1498 1497 1497 1496 1495 1495 1494 1494 1493 1493 1492 1491 1490 1489 1489 1489 1488 1488 1488 1489 1489
1485 1486 1487 1488 1490 1491 1491 1492 1493 1493 1493 1494 1494 1494 1494 1494 1494 1493 1494 1494 1494 1494 1494 1494 1493 1492 1492 1491 1491 1490 1490 1489 1488 1487 1487 1486 1486 1486 1486 1485 1485 1485 1486
1482 1483 1484 1485 1486 1487 1488 1488 1489 1489 1490 1490 1490 1490 1490 1490 1490 1490 1490 1490 1490 1490 1490 1489 1489 1488 1488 1488 1487 1487 1486 1485 1485 1484 1484 1484 1484 1483 1483 1483 1482 1482 1482
1479 1480 1481 1482 1482 1484 1484 1485 1485 1485 1486 1486 1486 1486 1486 1486 1486 1486 1486 1486 1486 1486 1486 1485 1485 1484 1484 1484 1484 1483 1483 1482 1482 1481 1481 1481 1481 1480 1480 1480 1480 1479 1479
1476 1477 1478 1479 1479 1480 1480 1481 1481 1481 1482 1482 1482 1482 1482 1482 1482 1482 1482 1482 1482 1482 1482 1482 1481 1481 1481 1480 1480 1480 1479 1479 1479 1478 1478 1478 1477 1477 1477 1477 1477 1477 1477
1472 1473 1474 1475 1476 1476 1476 1477 1477 1478 1478 1478 1478 1478 1478 1478 1478 1478 1478 1478 1478 1478 1478 1478 1478 1477 1477 1477 1477 1476 1476 1476 1475 1475 1475 1474 1474 1474 1474 1474 1474 1474 1474
1469 1470 1471 1471 1472 1472 1473 1473 1473 1474 1474 1474 1474 1474 1474 1474 1474 1474 1474 1473 1473 1474 1474 1474 1474 1474 1473 1473 1473 1473 1472 1472 1472 1472 1471 1471 1471 1471 1471 1472 1471 1472 1472
1466 1466 1467 1467 1468 1469 1469 1469 1470 1470 1470 1470 1470 1470 1470 1470 1470 1470 1470 1470 1469 1469 1469 1469 1470 1470 1470 1470 1469 1469 1469 1469 1468 1468 1468 1468 1468 1468 1469 1469 1469 1469 1470
1462 1462 1463 1463 1464 1465 1465 1466 1466 1466 1466 1466 1467 1467 1467 1467 1466 1466 1466 1466 1466 1466 1466 1466 1466 1466 1466 1466 1466 1465 1465 1465 1465 1465 1465 1465 1465 1466 1466 1466 1467 1467 1467
1457 1458 1458 1459 1460 1461 1461 1462 1462 1463 1463 1463 1463 1463 1463 1463 1463 1463 1463 1462 1462 1462 1462 1462 1462 1462 1462 1462 1462 1462 1462 1462 1462 1462 1462 1462 1463 1463 1463 1464 1464 1464 1465
1453 1454 1454 1455 1456 1456 1457 1458 1458 1459 1459 1459 1459 1460 1460 1460 1459 1459 1459 1459 1458 1458 1458 1458 1458 1458 1458 1458 1458 1458 1458 1458 1458 1459 1459 1459 1460 1460 1460 1461 1461 1462 1462
1448 1449 1450 1451 1451 1452 1453 1454 1454 1454 1455 1455 1455 1456 1456 1456 1456 1456 1455 1455 1455 1455 1455 1454 1454 1454 1454 1454 1454 1454 1454 1455 1455 1455 1456 1456 1456 1457 1457 1458 1458 1459 1459
1444 1444 1445 1446 1447 1448 1449 1449 1450 1450 1451 1451 1451 1452 1452 1452 1452 1452 1452 1451 1451 1451 1451 1450 1450 1450 1450 1450 1450 1450 1450 1451 1452 1452 1452 1453 1453 1454 1454 1455 1455 1456 1456
1439 1440 1441 1442 1443 1443 1444 1445 1446 1446 1447 1447 1447 1448 1448 1448 1448 1448 1448 1447 1447 1447 1447 1446 1446 1446 1446 1446 1446 1447 1447 1447 1448 1448 1449 1449 1450 1450 1451 1452 1452 1453 1453
1435 1436 1437 1438 1438 1439 1440 1441 1441 1442 1442 1443 1443 1444 1444 1444 1444 1444 1443 1443 1443 1443 1442 1442 1442 1442 1442 1442 1442 1443 1443 1443 1444 1445 1445 1446 1446 1447 1448 1448 1449 1450 1451
1431 1432 1432 1433 1434 1435 1436 1436 1437 1437 1438 1438 1439 1439 1440 1440 1440 1439 1439 1439 1439 1438 1438 1438 1438 1438 1438 1438 1438 1439 1439 1439 1440 1441 1442 1442 1443 1444 1444 1445 1446 1447 1448